Flag for United Kingdom Weather past 2 weeks in Saint Helier, Jersey, United Kingdom

Now
54 °F

Passing clouds.


Feels Like: 50 °F
Forecast: 57 / 66 °F
Wind: 12 mph from Northwest

Location: Jersey Airport

Current Time: Aug 23, 2014 at 6:34:46 AM

Latest Report: Aug 23, 2014 at 5:50 AM


Visibility: N/A

Pressure: 30.01 "Hg

Humidity: 72%

Dew point: 45 °F

Location of Saint HelierLocation

Historic Weather in Saint Helier — Graph

°F

Saint Helier temperature yesterday

Maximum temperature yesterday: 64 °F (at 3:20 PM)
Minimum temperature yesterday: 55 °F (at 11:20 AM)
Average temperature yesterday: 60 °F

Past Weeks' High & Low Weather Summary

 TemperatureHumidityPressure
High68 °F (Aug 9, 11:50 AM)100% (Aug 8, 3:50 PM)30.27 "Hg (Aug 8, 3:50 PM)
Low52 °F (Aug 21, 4:20 AM)53% (Aug 9, 12:50 PM)29.45 "Hg (Aug 10, 8:50 AM)
Average62 °F77%29.93 "Hg
* Reported Aug 8 5:20 AM — Aug 23 5:20 AM, Saint Helier, Weather by CustomWeather, © 2014

Note: Actual official high and low records may vary slightly from our data, if they occured in-between our weather recording intervals... More about our weather records

Advertising

Saint Helier weather history for previous 24 hours

 ConditionsComfort  
Time TempWeatherWind HumidityBarometerVisibility
5:20 AM
Aug 23
55 °FPassing clouds.9 mph72%30.01 "HgN/A
4:50 AM55 °FPassing clouds.8 mph72%30.01 "HgN/A
4:20 AM54 °FPassing clouds.10 mph77%30.01 "HgN/A
3:50 AM55 °FPassing clouds.10 mph72%30.01 "HgN/A
9:50 PM
Aug 22
59 °FPassing clouds.13 mph72%30.01 "HgN/A
9:20 PM57 °FPassing clouds.13 mph77%30.01 "HgN/A
8:50 PM59 °FPassing clouds.10 mph77%30.01 "HgN/A
8:20 PM59 °FPassing clouds.12 mph77%29.98 "HgN/A
7:50 PM59 °FPassing clouds.15 mph82%29.98 "HgN/A
7:20 PM61 °FPassing clouds.13 mph77%29.98 "HgN/A
6:50 PM61 °FPassing clouds.12 mph72%29.98 "HgN/A
6:20 PM61 °FPassing clouds.12 mph72%29.98 "HgN/A
5:50 PM61 °FPassing clouds.16 mph77%29.98 "HgN/A
5:20 PM61 °FPassing clouds.12 mph77%29.98 "HgN/A
4:50 PM63 °FPassing clouds.15 mph73%29.98 "HgN/A
4:20 PM63 °FPassing clouds.15 mph73%29.98 "HgN/A
3:50 PM64 °FPassing clouds.15 mph73%29.98 "HgN/A
3:20 PM64 °FPassing clouds.15 mph73%29.98 "HgN/A
2:50 PM61 °FScattered showers. Scattered clouds.13 mph83%29.98 "HgN/A
2:20 PM63 °FScattered showers. Passing clouds.13 mph77%29.98 "HgN/A
1:50 PM61 °FBroken clouds.15 mph83%29.98 "HgN/A
1:20 PM61 °FBroken clouds.12 mph88%29.98 "HgN/A
12:50 PM61 °FPartly sunny.14 mph88%29.98 "HgN/A
12:20 PM61 °FScattered clouds.16 mph88%29.98 "HgN/A
11:50 AM59 °FPartly sunny.14 mph94%29.95 "HgN/A
11:20 AM55 °FSleet. Broken clouds.16 mph94%29.95 "HgN/A
10:50 AM61 °FSprinkles. Partly sunny.21 mph83%29.95 "HgN/A
10:20 AM59 °FSleet. Broken clouds.10 mph88%29.95 "HgN/A
9:50 AM63 °FScattered showers. Scattered clouds.16 mph77%29.95 "HgN/A
9:20 AM61 °FPassing clouds.21 mph83%29.95 "HgN/A
8:50 AM59 °FPassing clouds.21 mph82%29.92 "HgN/A
8:20 AM59 °FPartly sunny.15 mph82%29.92 "HgN/A
7:50 AM57 °FPartly sunny.21 mph94%29.92 "HgN/A
7:20 AM57 °FSleet. Partly sunny.20 mph94%29.92 "HgN/A
6:50 AM59 °FScattered showers. Passing clouds.21 mph88%29.92 "HgN/A
6:20 AM59 °FPassing clouds.16 mph82%29.92 "HgN/A
Weather by CustomWeather, © 2014

See weather overviewHow to use our weather pages